A/2019 U5

Japanese version
Home page
Updated on June 13, 2020

---------------------------------------------------------------------

* Profile

Discovery Date October 22, 2019
Magnitude 21.16 mag
Discoverer Pan-STARRS 1 telescope (Haleakala)

* Orbital Elements

Epoch 2023 Apr. 6.0 TT = JDT 2460040.5
T 2023 Mar. 29.76032 TT                                 Rudenko
q   3.6239801            (2000.0)            P               Q
z  -0.0004340      Peri.  181.49416     -0.99907993     +0.00769050
 +/-0.0000347      Node     2.63739     -0.02315604     +0.73133509
e   1.0015727      Incl.  113.52013     -0.03609847     -0.68197495
H   10.0
From 82 observations 2019 Oct. 11-2020 May 29, mean residual 0".3.

* Finding Charts

* Magnitudes Graph

        H = 9.5  G = 0.15

---------------------------------------------------------------------

The orbital elements are published on M.P.E.C. 2020-L06.
The charts are made with StellaNavigator Ver.10 (AstroArts).
The magnitudes graphs are made with Comet for Windows.

---------------------------------------------------------------------

Copyright(C) Seiichi Yoshida (comet@aerith.net). All rights reserved.